Zurück zum Katalog

STARLINK-11191

AktivKommunikationVLEO
NORAD 60410·PAYLOAD·🇺🇸 United States

Gestartet Aug 10, 2024 von Cape Canaveral Space Force Station

Loading…

Nächste Überflüge (nächste 24 Stunden)

TLE

AktuellSource: CelesTrak SupGP

Epoche: Sep 14, 2026, 14:48 UTC

1 60410C 24141N   26257.61715278 -.00024075  00000+0 -19826-3 0  2577
2 60410  53.1574 234.8134 0001179  90.8934  46.5784 15.69728645    12

Verfolge STARLINK-11191 in Echtzeit mit AllMySat

Download on the App Store